TimeMDT,TemperatureF,Dew PointF,Humidity,Sea Level PressureIn,VisibilityMPH,Wind Direction,Wind SpeedMPH,Gust SpeedMPH,PrecipitationIn,Events,Conditions,WindDirDegrees,DateUTC
12:15 AM,59.0,42.8,55,30.36,10.0,ESE,4.6,-,N/A,,Clear,120,2013-06-30 06:15:00
12:35 AM,59.0,42.8,55,30.36,10.0,NE,4.6,-,N/A,,Clear,50,2013-06-30 06:35:00
12:55 AM,55.4,41.0,58,30.36,10.0,NNE,6.9,-,N/A,,Clear,20,2013-06-30 06:55:00
1:15 AM,55.4,41.0,58,30.36,10.0,North,6.9,-,N/A,,Clear,10,2013-06-30 07:15:00
1:35 AM,55.4,39.2,54,30.36,10.0,North,6.9,-,N/A,,Clear,350,2013-06-30 07:35:00
1:55 AM,55.4,42.8,63,30.36,10.0,North,5.8,-,N/A,,Clear,350,2013-06-30 07:55:00
2:15 AM,55.4,41.0,58,30.35,10.0,NNW,5.8,-,N/A,,Clear,340,2013-06-30 08:15:00
2:35 AM,53.6,41.0,62,30.35,10.0,North,5.8,-,N/A,,Clear,350,2013-06-30 08:35:00
2:55 AM,53.6,41.0,62,30.36,10.0,Calm,Calm,-,N/A,,Clear,0,2013-06-30 08:55:00
3:15 AM,51.8,41.0,67,30.36,10.0,East,3.5,-,N/A,,Clear,90,2013-06-30 09:15:00
3:35 AM,50.0,39.2,66,30.35,10.0,NNE,4.6,-,N/A,,Clear,20,2013-06-30 09:35:00
3:55 AM,51.8,39.2,62,30.35,10.0,NE,4.6,-,N/A,,Clear,50,2013-06-30 09:55:00
4:15 AM,53.6,39.2,58,30.35,10.0,Calm,Calm,-,N/A,,Clear,0,2013-06-30 10:15:00
4:35 AM,50.0,37.4,62,30.35,10.0,Calm,Calm,-,N/A,,Clear,0,2013-06-30 10:35:00
4:55 AM,48.2,37.4,66,30.35,10.0,ENE,3.5,-,N/A,,Clear,70,2013-06-30 10:55:00
5:15 AM,50.0,37.4,62,30.35,10.0,Calm,Calm,-,N/A,,Clear,0,2013-06-30 11:15:00
5:35 AM,51.8,37.4,58,30.36,10.0,ENE,4.6,-,N/A,,Clear,60,2013-06-30 11:35:00
5:55 AM,48.2,37.4,66,30.37,10.0,Calm,Calm,-,N/A,,Clear,0,2013-06-30 11:55:00
6:15 AM,44.6,35.6,71,30.37,10.0,Calm,Calm,-,N/A,,Clear,0,2013-06-30 12:15:00
6:35 AM,50.0,39.2,66,30.37,10.0,Calm,Calm,-,N/A,,Clear,0,2013-06-30 12:35:00
6:55 AM,53.6,41.0,62,30.37,10.0,Calm,Calm,-,N/A,,Clear,0,2013-06-30 12:55:00
7:15 AM,53.6,41.0,62,30.38,10.0,NNW,4.6,-,N/A,,Clear,330,2013-06-30 13:15:00
7:35 AM,55.4,42.8,63,30.37,10.0,North,3.5,-,N/A,,Clear,350,2013-06-30 13:35:00
7:55 AM,60.8,42.8,52,30.37,10.0,Calm,Calm,-,N/A,,Clear,0,2013-06-30 13:55:00
8:15 AM,60.8,42.8,52,30.38,10.0,Calm,Calm,-,N/A,,Clear,0,2013-06-30 14:15:00
8:35 AM,62.6,42.8,48,30.37,10.0,NNW,5.8,-,N/A,,Clear,330,2013-06-30 14:35:00
8:55 AM,64.4,42.8,45,30.37,10.0,North,5.8,-,N/A,,Clear,360,2013-06-30 14:55:00
9:15 AM,64.4,42.8,45,30.37,10.0,North,3.5,-,N/A,,Clear,350,2013-06-30 15:15:00
9:35 AM,69.8,42.8,38,30.36,10.0,Calm,Calm,-,N/A,,Clear,0,2013-06-30 15:35:00
9:55 AM,69.8,42.8,38,30.36,10.0,Calm,Calm,-,N/A,,Clear,0,2013-06-30 15:55:00
10:15 AM,73.4,42.8,33,30.35,10.0,Calm,Calm,-,N/A,,Clear,0,2013-06-30 16:15:00
10:35 AM,73.4,42.8,33,30.35,10.0,WNW,4.6,-,N/A,,Clear,300,2013-06-30 16:35:00
10:55 AM,73.4,42.8,33,30.34,9.0,SSW,5.8,-,N/A,,Partly Cloudy,210,2013-06-30 16:55:00
11:15 AM,77.0,42.8,29,30.34,10.0,SSW,5.8,-,N/A,,Partly Cloudy,200,2013-06-30 17:15:00
11:35 AM,75.2,42.8,31,30.33,10.0,Calm,Calm,-,N/A,,Partly Cloudy,0,2013-06-30 17:35:00
11:55 AM,78.8,42.8,28,30.32,10.0,SW,6.9,-,N/A,,Clear,220,2013-06-30 17:55:00
12:15 PM,80.6,42.8,26,30.31,10.0,SE,4.6,-,N/A,,Clear,140,2013-06-30 18:15:00
12:35 PM,82.4,42.8,25,30.30,10.0,WSW,5.8,-,N/A,,Clear,240,2013-06-30 18:35:00
12:55 PM,82.4,42.8,25,30.29,10.0,WNW,4.6,-,N/A,,Clear,300,2013-06-30 18:55:00
1:15 PM,84.2,42.8,23,30.27,10.0,NW,6.9,-,N/A,,Clear,310,2013-06-30 19:15:00
1:35 PM,84.2,41.0,22,30.25,10.0,NW,4.6,17.3,N/A,,Clear,310,2013-06-30 19:35:00
1:55 PM,84.2,41.0,22,30.24,10.0,SE,4.6,20.7,N/A,,Partly Cloudy,130,2013-06-30 19:55:00
2:15 PM,87.8,41.0,19,30.23,10.0,West,11.5,17.3,N/A,,Partly Cloudy,280,2013-06-30 20:15:00
2:35 PM,82.4,39.2,21,30.23,10.0,West,29.9,35.7,N/A,Thunderstorm,Mostly Cloudy,270,2013-06-30 20:35:00
2:55 PM,77.0,48.2,36,30.24,10.0,WNW,21.9,31.1,0.01,,Mostly Cloudy,290,2013-06-30 20:55:00
3:15 PM,75.2,46.4,36,30.26,10.0,West,18.4,-,N/A,,Scattered Clouds,280,2013-06-30 21:15:00
3:35 PM,69.8,44.6,40,30.25,10.0,West,18.4,32.2,N/A,Thunderstorm,Thunderstorm,280,2013-06-30 21:35:00
3:55 PM,75.2,48.2,38,30.22,10.0,West,23.0,27.6,N/A,,Scattered Clouds,270,2013-06-30 21:55:00
4:15 PM,80.6,42.8,26,30.21,10.0,West,13.8,24.2,N/A,,Clear,270,2013-06-30 22:15:00
4:35 PM,80.6,41.0,24,30.22,10.0,West,9.2,-,N/A,,Clear,270,2013-06-30 22:35:00
4:55 PM,78.8,39.2,24,30.24,10.0,SE,9.2,-,N/A,,Clear,130,2013-06-30 22:55:00
5:15 PM,77.0,41.0,28,30.24,10.0,SE,13.8,-,N/A,,Scattered Clouds,130,2013-06-30 23:15:00
5:35 PM,73.4,44.6,36,30.25,10.0,East,28.8,36.8,0.01,,Scattered Clouds,100,2013-06-30 23:35:00
5:55 PM,73.4,42.8,33,30.27,10.0,East,24.2,32.2,0.01,Thunderstorm,Mostly Cloudy,80,2013-06-30 23:55:00
6:15 PM,69.8,46.4,43,30.31,10.0,NNE,8.1,-,N/A,,Overcast,20,2013-07-01 00:15:00
6:35 PM,62.6,51.8,68,30.32,10.0,North,10.4,-,N/A,,Overcast,350,2013-07-01 00:35:00
6:55 PM,60.8,51.8,72,30.32,10.0,ENE,11.5,-,0.01,,Overcast,60,2013-07-01 00:55:00
7:15 PM,60.8,53.6,77,30.31,10.0,East,10.4,-,N/A,,Mostly Cloudy,90,2013-07-01 01:15:00
7:35 PM,60.8,51.8,72,30.31,10.0,ESE,13.8,-,N/A,,Mostly Cloudy,120,2013-07-01 01:35:00
7:55 PM,60.8,51.8,72,30.32,10.0,SE,9.2,-,N/A,,Mostly Cloudy,130,2013-07-01 01:55:00
8:15 PM,60.8,51.8,72,30.34,10.0,East,6.9,-,N/A,,Mostly Cloudy,80,2013-07-01 02:15:00
8:35 PM,59.0,51.8,77,30.38,10.0,North,17.3,24.2,0.02,,Overcast,360,2013-07-01 02:35:00
8:55 PM,57.2,51.8,82,30.41,10.0,North,19.6,28.8,0.06,,Overcast,10,2013-07-01 02:55:00
9:15 PM,55.4,51.8,88,30.43,10.0,North,13.8,18.4,0.05,,Overcast,10,2013-07-01 03:15:00
9:35 PM,55.4,50.0,82,30.43,10.0,NE,4.6,-,0.09,,Overcast,50,2013-07-01 03:35:00
9:55 PM,55.4,51.8,88,30.40,10.0,South,13.8,-,0.12,,Overcast,180,2013-07-01 03:55:00
10:15 PM,55.4,50.0,82,30.37,10.0,South,17.3,-,N/A,,Overcast,180,2013-07-01 04:15:00
10:35 PM,55.4,51.8,88,30.39,10.0,ESE,9.2,-,N/A,,Scattered Clouds,120,2013-07-01 04:35:00
10:55 PM,55.4,50.0,82,30.37,10.0,SE,9.2,-,N/A,,Clear,140,2013-07-01 04:55:00
11:15 PM,55.4,51.8,88,30.38,10.0,North,8.1,-,N/A,,Clear,360,2013-07-01 05:15:00
11:35 PM,55.4,51.8,88,30.39,10.0,NNE,8.1,-,N/A,,Clear,20,2013-07-01 05:35:00
11:55 PM,55.4,51.8,88,30.39,10.0,NNE,4.6,-,N/A,,Clear,20,2013-07-01 05:55:00